UAL4633 KLAX-KSAN

Flight info

Callsign UAL4633
Flight time 0h 27m
Altitude 13000
Route LAXX1 MZB
Aircraft A319/M-SDE3FGHIRWY/LB1

Departure

Time 2026-04-23 03:03
Airport Los Angeles International Airport (KLAX)

Arrival

Time 2026-04-23 03:30
Airport San Diego International Airport (KSAN)
Time Latitude Longitude Altitude Speed Heading
2026-04-23 02:43 33.94116 -118.40019 95 ft 0 kts 95°
2026-04-23 02:53 33.94117 -118.40022 95 ft 2 kts 95°
2026-04-23 02:53 33.94119 -118.40046 95 ft 3 kts 108°
2026-04-23 02:53 33.94127 -118.40067 97 ft 3 kts 131°
2026-04-23 02:54 33.94129 -118.40069 95 ft 0 kts 135°
2026-04-23 02:56 33.94125 -118.40067 97 ft 1 kts 146°
2026-04-23 02:56 33.94108 -118.40064 97 ft 3 kts 171°
2026-04-23 02:57 33.94084 -118.40063 96 ft 3 kts 181°
2026-04-23 02:57 33.94056 -118.40066 97 ft 5 kts 185°
2026-04-23 02:57 33.94010 -118.40065 100 ft 9 kts 175°
2026-04-23 02:57 33.93931 -118.40051 100 ft 13 kts 161°
2026-04-23 02:58 33.93884 -118.39980 104 ft 9 kts 95°
2026-04-23 02:58 33.93888 -118.39911 103 ft 8 kts 83°
2026-04-23 02:58 33.93894 -118.39842 104 ft 8 kts 84°
2026-04-23 02:58 33.93899 -118.39773 104 ft 8 kts 84°
2026-04-23 02:59 33.93907 -118.39708 103 ft 8 kts 82°
2026-04-23 02:59 33.93913 -118.39641 103 ft 9 kts 84°
2026-04-23 02:59 33.93923 -118.39534 103 ft 17 kts 80°
2026-04-23 02:59 33.93942 -118.39372 101 ft 22 kts 84°
2026-04-23 03:00 33.93964 -118.39168 101 ft 27 kts 82°
2026-04-23 03:00 33.93988 -118.38927 102 ft 31 kts 83°
2026-04-23 03:00 33.94016 -118.38646 102 ft 36 kts 83°
2026-04-23 03:00 33.94051 -118.38324 103 ft 41 kts 82°
2026-04-23 03:01 33.94075 -118.38023 103 ft 16 kts 108°
2026-04-23 03:01 33.94002 -118.38013 109 ft 12 kts 218°
2026-04-23 03:01 33.93972 -118.38165 110 ft 23 kts 263°
2026-04-23 03:01 33.93961 -118.38265 109 ft 1 kts 261°
2026-04-23 03:02 33.93960 -118.38275 108 ft 1 kts 261°
2026-04-23 03:02 33.93956 -118.38309 109 ft 14 kts 262°
2026-04-23 03:02 33.93919 -118.38678 108 ft 75 kts 263°
2026-04-23 03:02 33.93830 -118.39534 108 ft 129 kts 263°
2026-04-23 03:03 33.93701 -118.40748 280 ft 160 kts 262°
2026-04-23 03:03 33.93553 -118.42100 939 ft 163 kts 262°
2026-04-23 03:03 33.93394 -118.43445 1710 ft 161 kts 261°
2026-04-23 03:03 33.92987 -118.44764 2209 ft 180 kts 239°
2026-04-23 03:04 33.92173 -118.46044 2579 ft 205 kts 234°
2026-04-23 03:04 33.91245 -118.47472 2978 ft 229 kts 233°
2026-04-23 03:04 33.90216 -118.49066 3515 ft 252 kts 234°
2026-04-23 03:04 33.89120 -118.50771 4396 ft 261 kts 234°
2026-04-23 03:05 33.87999 -118.52513 5386 ft 265 kts 233°
2026-04-23 03:05 33.86858 -118.54279 6364 ft 269 kts 233°
2026-04-23 03:05 33.85702 -118.56070 7308 ft 273 kts 233°
2026-04-23 03:05 33.84528 -118.57891 8213 ft 278 kts 233°
2026-04-23 03:06 33.83088 -118.59474 9061 ft 287 kts 211°
2026-04-23 03:06 33.81163 -118.60175 9904 ft 295 kts 186°
2026-04-23 03:06 33.79059 -118.60231 10438 ft 314 kts 182°
2026-04-23 03:06 33.76788 -118.60173 10715 ft 338 kts 181°
2026-04-23 03:07 33.74380 -118.60089 10974 ft 352 kts 181°
2026-04-23 03:07 33.71923 -118.59985 11016 ft 354 kts 181°
2026-04-23 03:07 33.69459 -118.59873 11016 ft 354 kts 181°
2026-04-23 03:07 33.66999 -118.59760 11017 ft 354 kts 181°
2026-04-23 03:08 33.64535 -118.59645 11017 ft 354 kts 181°
2026-04-23 03:08 33.62084 -118.59112 11325 ft 365 kts 162°
2026-04-23 03:08 33.59848 -118.57618 12022 ft 375 kts 144°
2026-04-23 03:08 33.58115 -118.55244 12672 ft 386 kts 123°
2026-04-23 03:09 33.56802 -118.52419 12951 ft 389 kts 120°
2026-04-23 03:09 33.55542 -118.49548 13015 ft 403 kts 119°
2026-04-23 03:09 33.54231 -118.46492 13031 ft 421 kts 118°
2026-04-23 03:09 33.52889 -118.43349 13029 ft 425 kts 118°
2026-04-23 03:10 33.51531 -118.40193 13031 ft 426 kts 119°
2026-04-23 03:10 33.50157 -118.37034 13031 ft 429 kts 119°
2026-04-23 03:10 33.48766 -118.33867 13027 ft 430 kts 119°
2026-04-23 03:10 33.47367 -118.30699 13032 ft 430 kts 119°
2026-04-23 03:11 33.45968 -118.27536 13031 ft 430 kts 119°
2026-04-23 03:11 33.44638 -118.24523 13025 ft 430 kts 119°
2026-04-23 03:11 33.43236 -118.21344 13024 ft 430 kts 119°
2026-04-23 03:11 33.41839 -118.18177 13031 ft 430 kts 119°
2026-04-23 03:12 33.40441 -118.15013 13023 ft 430 kts 119°
2026-04-23 03:12 33.39039 -118.11841 13022 ft 431 kts 119°
2026-04-23 03:12 33.37639 -118.08677 13023 ft 431 kts 119°
2026-04-23 03:12 33.36235 -118.05507 13033 ft 431 kts 119°
2026-04-23 03:13 33.34832 -118.02344 13028 ft 431 kts 119°
2026-04-23 03:13 33.33427 -117.99183 13026 ft 431 kts 119°
2026-04-23 03:13 33.32018 -117.96023 13027 ft 431 kts 119°
2026-04-23 03:13 33.30610 -117.92861 13032 ft 431 kts 119°
2026-04-23 03:14 33.29205 -117.89705 13029 ft 431 kts 119°
2026-04-23 03:14 33.27792 -117.86540 13023 ft 431 kts 120°
2026-04-23 03:14 33.26385 -117.83389 13024 ft 431 kts 119°
2026-04-23 03:14 33.24975 -117.80230 13025 ft 430 kts 119°
2026-04-23 03:15 33.23564 -117.77075 13028 ft 430 kts 120°
2026-04-23 03:15 33.22156 -117.73934 13034 ft 430 kts 120°
2026-04-23 03:15 33.20718 -117.70798 13034 ft 429 kts 123°
2026-04-23 03:15 33.18974 -117.67984 12849 ft 411 kts 130°
2026-04-23 03:16 33.17235 -117.65343 12599 ft 402 kts 130°
2026-04-23 03:16 33.15505 -117.62737 12348 ft 399 kts 130°
2026-04-23 03:16 33.12701 -117.58532 11938 ft 396 kts 130°
2026-04-23 03:17 33.11077 -117.56093 11707 ft 395 kts 130°
2026-04-23 03:17 33.09375 -117.53531 11457 ft 392 kts 130°
2026-04-23 03:17 33.07667 -117.50958 11195 ft 389 kts 130°
2026-04-23 03:17 33.05991 -117.48439 10953 ft 386 kts 130°
2026-04-23 03:18 33.04331 -117.45944 10703 ft 383 kts 130°
2026-04-23 03:18 33.02687 -117.43474 10454 ft 379 kts 130°
2026-04-23 03:18 33.01053 -117.41021 10202 ft 376 kts 130°
2026-04-23 03:18 32.99438 -117.38603 9954 ft 369 kts 129°
2026-04-23 03:19 32.97878 -117.36263 9814 ft 352 kts 129°
2026-04-23 03:19 32.96388 -117.34034 9688 ft 337 kts 129°
2026-04-23 03:19 32.94962 -117.31903 9556 ft 319 kts 130°
2026-04-23 03:19 32.93628 -117.29904 9431 ft 307 kts 129°
2026-04-23 03:20 32.92308 -117.27928 9307 ft 304 kts 129°
2026-04-23 03:20 32.90995 -117.25968 9181 ft 302 kts 129°
2026-04-23 03:20 32.89686 -117.24016 9057 ft 301 kts 129°
2026-04-23 03:20 32.88382 -117.22069 8889 ft 301 kts 129°
2026-04-23 03:21 32.87068 -117.20112 8456 ft 302 kts 129°
2026-04-23 03:21 32.85766 -117.18174 8134 ft 299 kts 129°
2026-04-23 03:21 32.84451 -117.16219 7744 ft 298 kts 129°
2026-04-23 03:21 32.83175 -117.14323 7388 ft 296 kts 129°
2026-04-23 03:22 32.81872 -117.12383 6810 ft 300 kts 129°
2026-04-23 03:22 32.80586 -117.10462 6336 ft 293 kts 129°
2026-04-23 03:22 32.79364 -117.08642 6178 ft 275 kts 129°
2026-04-23 03:22 32.78240 -117.06897 6051 ft 257 kts 121°
2026-04-23 03:23 32.77534 -117.05030 5892 ft 241 kts 105°
2026-04-23 03:23 32.77080 -117.03127 5696 ft 234 kts 105°
2026-04-23 03:23 32.76637 -117.01300 5514 ft 233 kts 105°
2026-04-23 03:23 32.76186 -116.99455 5341 ft 233 kts 105°
2026-04-23 03:24 32.75638 -116.97621 5102 ft 232 kts 120°
2026-04-23 03:24 32.74591 -116.96234 4838 ft 228 kts 146°
2026-04-23 03:24 32.73147 -116.95505 4561 ft 220 kts 172°
2026-04-23 03:24 32.71672 -116.95534 4316 ft 211 kts 195°
2026-04-23 03:25 32.70380 -116.96210 4067 ft 200 kts 216°
2026-04-23 03:25 32.69442 -116.97360 3815 ft 190 kts 238°
2026-04-23 03:25 32.68933 -116.98760 3577 ft 182 kts 258°
2026-04-23 03:25 32.68854 -117.00221 3347 ft 174 kts 277°
2026-04-23 03:26 32.69129 -117.01588 3122 ft 166 kts 287°
2026-04-23 03:26 32.69431 -117.02823 2911 ft 146 kts 287°
2026-04-23 03:26 32.69702 -117.03933 2732 ft 136 kts 288°
2026-04-23 03:26 32.69960 -117.04991 2560 ft 131 kts 287°
2026-04-23 03:27 32.70214 -117.06023 2402 ft 129 kts 287°
2026-04-23 03:27 32.70465 -117.07045 2238 ft 128 kts 288°
2026-04-23 03:27 32.70716 -117.08063 2051 ft 128 kts 288°
2026-04-23 03:27 32.70964 -117.09075 1844 ft 127 kts 288°
2026-04-23 03:28 32.71230 -117.10077 1674 ft 127 kts 288°
2026-04-23 03:28 32.71464 -117.11085 1518 ft 127 kts 286°
2026-04-23 03:28 32.71694 -117.12092 1285 ft 126 kts 287°
2026-04-23 03:28 32.71943 -117.13095 1093 ft 126 kts 289°
2026-04-23 03:29 32.72177 -117.14103 906 ft 127 kts 288°
2026-04-23 03:29 32.72418 -117.15103 675 ft 126 kts 289°
2026-04-23 03:29 32.72658 -117.16096 455 ft 126 kts 288°
2026-04-23 03:29 32.72895 -117.17090 237 ft 125 kts 287°
2026-04-23 03:30 32.73143 -117.18086 38 ft 125 kts 287°
2026-04-23 03:30 32.73356 -117.18947 22 ft 81 kts 285°
2026-04-23 03:30 32.73443 -117.19350 22 ft 43 kts 277°
2026-04-23 03:30 32.73417 -117.19643 23 ft 24 kts 284°
2026-04-23 03:31 32.73363 -117.19705 21 ft 10 kts 178°
2026-04-23 03:31 32.73328 -117.19681 21 ft 0 kts 143°
2026-04-23 03:37 32.73316 -117.19680 20 ft 0 kts 141°